START_TIME,STEP,MOV.,M29,t_acc.,H22,t_acc.,H26,t_acc.,H30,t_acc.
1979-03-07 18:00:29.700 ,7,1,0.,24.0,0.,24.0,0.,24.0,0.,24.0
1979-03-07 18:00:53.700 ,6,1,0.,24.0,0.,24.0,0.,24.0,0.,24.0
1979-03-07 18:01:17.700 ,5,1,0.,24.0,0.,24.0,0.,24.0,0.,24.0
1979-03-07 18:01:41.700 ,4,1,0.,24.0,0.,24.0,0.,24.0,0.,24.0
1979-03-07 18:02:05.700 ,3,1,0.,24.0,0.,24.0,0.,24.0,0.,24.0
1979-03-07 18:02:29.700 ,2,1,0.,24.0,0.,24.0,0.,24.0,0.,24.0
1979-03-07 18:02:53.700 ,1,1,0.,24.0,0.,24.0,0.,24.0,0.,24.0
1979-03-07 18:03:17.700 ,0,1,0.,24.0,0.,24.0,0.,24.0,0.,24.0
1979-03-07 18:03:41.700 ,0,1,0.,24.0,0.,24.0,0.,24.0,0.,24.0
1979-03-07 18:04:05.700 ,1,1,0.,24.0,0.,24.0,0.,24.0,0.,24.0
1979-03-07 18:04:29.700 ,2,1,0.,24.0,0.,24.0,0.,24.0,0.,24.0
1979-03-07 18:04:53.700 ,3,1,0.,24.0,0.,24.0,0.,24.0,0.,24.0
1979-03-07 18:05:17.700 ,4,1,0.,24.0,0.,24.0,0.,24.0,0.,24.0
1979-03-07 18:05:41.700 ,5,1,0.,24.0,0.,24.0,0.,24.0,0.,24.0
1979-03-07 18:06:05.700 ,6,1,0.,24.0,0.,24.0,0.,24.0,0.,24.0
1979-03-07 18:06:29.700 ,7,1,0.,24.0,0.,24.0,0.,24.0,0.,24.0
1979-03-07 18:06:53.700 ,7,1,0.,24.0,0.,24.0,0.,24.0,0.,24.0
1979-03-07 18:07:17.700 ,6,1,0.,24.0,0.,24.0,0.,24.0,0.,24.0
1979-03-07 18:07:41.700 ,5,1,0.,24.0,0.,24.0,0.,24.0,0.,24.0
1979-03-07 18:08:05.700 ,4,1,0.,24.0,0.,24.0,0.,24.0,0.,24.0
1979-03-07 18:08:29.700 ,3,1,0.,24.0,0.,24.0,0.,24.0,0.,24.0
1979-03-07 18:08:53.700 ,2,1,0.,24.0,0.,24.0,0.,24.0,0.,24.0
1979-03-07 18:09:17.700 ,1,1,0.,24.0,0.,24.0,0.,24.0,0.,24.0
1979-03-07 18:09:41.700 ,0,1,0.,24.0,0.,24.0,0.,24.0,0.,24.0
1979-03-07 18:10:05.700 ,0,1,0.,24.0,0.,24.0,0.,24.0,0.,24.0
1979-03-07 18:10:29.700 ,1,1,0.,24.0,0.,24.0,0.,24.0,0.,24.0
1979-03-07 18:10:53.700 ,2,1,0.,24.0,0.,24.0,0.,24.0,0.,24.0
1979-03-07 18:11:17.700 ,3,1,0.,24.0,0.,24.0,0.,24.0,0.,24.0
1979-03-07 18:11:41.700 ,4,1,0.,24.0,0.,24.0,0.,24.0,0.,24.0
1979-03-07 18:12:05.700 ,5,1,0.,24.0,0.,24.0,0.,24.0,0.,24.0
1979-03-07 18:12:29.700 ,6,1,0.,24.0,0.,24.0,0.,24.0,0.,24.0
1979-03-07 18:12:53.700 ,7,1,0.,24.0,0.,24.0,0.,24.0,0.,24.0
1979-03-07 18:13:17.700 ,7,1,0.,24.0,0.,24.0,0.,24.0,0.,24.0
1979-03-07 18:13:41.700 ,6,1,0.,24.0,0.,24.0,0.,24.0,0.,24.0
1979-03-07 18:14:05.700 ,5,1,0.,24.0,0.,24.0,0.,24.0,0.,24.0
1979-03-07 18:14:29.700 ,4,1,0.,24.0,0.,24.0,0.,24.0,0.,24.0
1979-03-07 18:14:53.700 ,3,1,0.,24.0,0.,24.0,0.,24.0,0.,24.0
1979-03-07 18:15:17.700 ,2,1,0.,24.0,0.,24.0,0.,24.0,0.,24.0
1979-03-07 18:15:41.700 ,1,1,0.,24.0,0.,24.0,0.,24.0,0.,24.0
1979-03-07 18:16:05.700 ,0,1,0.,24.0,0.,24.0,0.,24.0,0.,24.0
1979-03-07 18:16:29.700 ,0,1,0.,24.0,0.,24.0,0.,24.0,0.,24.0
1979-03-07 18:16:53.700 ,1,1,0.,24.0,0.,24.0,0.,24.0,0.,24.0
1979-03-07 18:17:17.700 ,2,1,0.,24.0,0.,24.0,0.,24.0,0.,24.0
1979-03-07 18:17:41.700 ,3,1,0.,24.0,0.,24.0,0.,24.0,0.,24.0
1979-03-07 18:18:05.700 ,4,1,0.,24.0,0.,24.0,0.,24.0,0.,24.0
1979-03-07 18:18:29.700 ,5,1,0.,24.0,0.,24.0,0.,24.0,0.,24.0
1979-03-07 18:18:53.700 ,6,1,0.,24.0,0.,24.0,0.,24.0,0.,24.0
1979-03-07 18:19:17.700 ,7,1,0.,24.0,0.,24.0,0.,24.0,0.,24.0
1979-03-07 18:19:41.700 ,7,1,0.,24.0,0.,24.0,0.,24.0,0.,24.0
1979-03-07 18:20:05.700 ,6,1,0.,24.0,0.,24.0,0.,24.0,0.,24.0
1979-03-07 18:20:29.700 ,5,1,0.,24.0,0.,24.0,0.,24.0,0.,24.0
1979-03-07 18:20:53.700 ,4,1,0.,24.0,0.,24.0,0.,24.0,0.,24.0
1979-03-07 18:21:17.700 ,3,1,0.,24.0,0.,24.0,0.,24.0,0.,24.0
1979-03-07 18:21:41.700 ,2,1,0.,24.0,0.,24.0,0.,24.0,0.,24.0
1979-03-07 18:22:05.700 ,1,1,0.,24.0,0.,24.0,0.,24.0,0.,24.0
1979-03-07 18:22:29.700 ,0,1,0.,24.0,0.,24.0,0.,24.0,0.,24.0
1979-03-07 18:22:53.700 ,0,1,0.,24.0,0.,24.0,0.,24.0,0.,24.0
1979-03-07 18:23:17.700 ,1,1,0.,24.0,0.,24.0,0.,24.0,0.,24.0
1979-03-07 18:23:41.700 ,2,1,0.,24.0,0.,24.0,0.,24.0,0.,24.0
1979-03-07 18:24:05.700 ,3,1,0.,24.0,0.,24.0,0.,24.0,0.,24.0
1979-03-07 18:24:29.700 ,0,0,0.,24.0,0.,24.0,0.,24.0,0.,24.0
1979-03-07 18:24:53.700 ,0,0,0.,24.0,0.,24.0,0.,24.0,0.,24.0
1979-03-07 18:25:17.700 ,6,1,0.,24.0,0.,24.0,0.,24.0,0.,24.0
1979-03-07 18:25:41.710 ,7,1,0.,24.0,0.,24.0,0.,24.0,0.,24.0
1979-03-07 18:26:05.710 ,7,1,0.,24.0,0.,24.0,0.,24.0,0.,24.0
1979-03-07 18:26:29.710 ,6,1,0.,24.0,0.,24.0,0.,24.0,0.,24.0
1979-03-07 18:26:53.710 ,5,1,0.,24.0,0.,24.0,0.,24.0,0.,24.0
1979-03-07 18:27:17.710 ,4,1,0.,24.0,0.,24.0,0.,24.0,0.,24.0
1979-03-07 18:27:41.710 ,3,1,0.,24.0,0.,24.0,0.,24.0,0.,24.0
1979-03-07 18:28:05.710 ,2,1,0.,24.0,0.,24.0,0.,24.0,0.,24.0
1979-03-07 18:28:29.710 ,1,1,0.,24.0,0.,24.0,0.,24.0,0.,24.0
1979-03-07 18:28:53.710 ,0,1,0.,24.0,0.,24.0,0.,24.0,0.,24.0
1979-03-07 18:29:17.710 ,0,1,0.,24.0,0.,24.0,0.,24.0,0.,24.0
1979-03-07 18:29:41.710 ,1,1,0.,24.0,0.,24.0,0.,24.0,0.,24.0
1979-03-07 18:30:05.710 ,2,1,0.,24.0,0.,24.0,0.,24.0,0.,24.0
1979-03-07 18:30:29.710 ,3,1,0.,24.0,0.,24.0,0.,24.0,0.,24.0
1979-03-07 18:30:53.710 ,4,1,0.,24.0,0.,24.0,0.,24.0,0.,24.0
1979-03-07 18:31:17.710 ,5,1,0.,24.0,0.,24.0,0.,24.0,0.,24.0
1979-03-07 18:31:41.710 ,6,1,0.,24.0,0.,24.0,0.,24.0,0.,24.0
1979-03-07 18:32:05.710 ,7,1,0.,24.0,0.,24.0,0.,24.0,0.,24.0
1979-03-07 18:32:29.710 ,7,1,0.,24.0,0.,24.0,0.,24.0,0.,24.0
1979-03-07 18:32:53.710 ,6,1,0.,24.0,0.,24.0,0.,24.0,0.,24.0
1979-03-07 18:33:17.710 ,5,1,0.,24.0,0.,24.0,0.,24.0,0.,24.0
1979-03-07 18:33:41.710 ,4,1,0.,24.0,0.,24.0,0.,24.0,0.,24.0
1979-03-07 18:34:05.710 ,3,1,0.,24.0,0.,24.0,0.,24.0,0.,24.0
1979-03-07 18:34:29.710 ,2,1,0.,24.0,0.,24.0,0.,24.0,0.,24.0
1979-03-07 18:34:53.710 ,1,1,0.,24.0,0.,24.0,0.,24.0,0.,24.0
1979-03-07 18:35:17.710 ,0,1,0.,24.0,0.,24.0,0.,24.0,0.,24.0
1979-03-07 18:35:41.710 ,0,1,0.,24.0,0.,24.0,0.,24.0,0.,24.0
1979-03-07 18:36:05.710 ,1,1,0.,24.0,0.,24.0,0.,24.0,0.,24.0
1979-03-07 18:36:29.710 ,2,1,0.,24.0,0.,24.0,0.,24.0,0.,24.0
1979-03-07 18:36:53.710 ,3,1,0.,24.0,0.,24.0,0.,24.0,0.,24.0
1979-03-07 18:37:17.710 ,4,1,0.,24.0,0.,24.0,0.,24.0,0.,24.0
1979-03-07 18:37:41.710 ,5,1,0.,24.0,0.,24.0,0.,24.0,0.,24.0
1979-03-07 18:38:05.710 ,6,1,0.,24.0,0.,24.0,0.,24.0,0.,24.0
1979-03-07 18:38:29.710 ,7,1,0.,24.0,0.,24.0,0.,24.0,0.,24.0
1979-03-07 18:38:53.710 ,7,1,0.,24.0,0.,24.0,0.,24.0,0.,24.0
1979-03-07 18:39:17.710 ,6,1,0.,24.0,0.,24.0,0.,24.0,0.,24.0
1979-03-07 18:39:41.710 ,5,1,0.,24.0,0.,24.0,0.,24.0,0.,24.0
1979-03-07 18:40:05.710 ,4,1,0.,24.0,0.,24.0,0.,24.0,0.,24.0
1979-03-07 18:40:29.710 ,3,1,0.,24.0,0.,24.0,0.,24.0,0.,24.0
1979-03-07 18:40:53.710 ,2,1,0.,24.0,0.,24.0,0.,24.0,0.,24.0
1979-03-07 18:41:17.710 ,1,1,0.,24.0,0.,24.0,0.,24.0,0.,24.0
1979-03-07 18:41:41.710 ,0,1,0.,24.0,0.,24.0,0.,24.0,0.,24.0
1979-03-07 18:42:05.710 ,0,1,0.,24.0,0.,24.0,0.,24.0,0.,24.0
1979-03-07 18:42:29.710 ,1,1,0.,24.0,0.,24.0,0.,24.0,0.,24.0
1979-03-07 18:42:53.710 ,2,1,0.,24.0,0.,24.0,0.,24.0,0.,24.0
1979-03-07 18:43:17.710 ,3,1,0.,24.0,0.,24.0,0.,24.0,0.,24.0
1979-03-07 18:43:41.710 ,4,1,0.,24.0,0.,24.0,0.,24.0,0.,24.0
1979-03-07 18:44:05.710 ,5,1,0.,24.0,0.,24.0,0.,24.0,0.,24.0
1979-03-07 18:44:29.710 ,6,1,0.,24.0,0.,24.0,0.,24.0,0.,24.0
1979-03-07 18:44:53.710 ,7,1,0.,24.0,0.,24.0,0.,24.0,0.,24.0
1979-03-07 18:45:17.710 ,7,1,0.,24.0,0.,24.0,0.,24.0,0.,24.0
1979-03-07 18:45:41.710 ,0,0,0.,24.0,0.,24.0,0.,24.0,0.,24.0
1979-03-07 18:46:05.710 ,7,1,0.,24.0,0.,24.0,0.,24.0,0.,24.0
1979-03-07 18:46:29.710 ,4,1,0.,24.0,0.,24.0,0.,24.0,0.,24.0
1979-03-07 18:46:53.710 ,3,1,0.,24.0,0.,24.0,0.,24.0,0.,24.0
1979-03-07 18:47:17.710 ,2,1,0.,24.0,0.,24.0,0.,24.0,0.,24.0
1979-03-07 18:47:41.710 ,1,1,0.,24.0,0.,24.0,0.,24.0,0.,24.0
1979-03-07 18:48:05.710 ,0,1,0.,24.0,0.,24.0,0.,24.0,0.,24.0
1979-03-07 18:48:29.710 ,0,1,0.,24.0,0.,24.0,0.,24.0,0.,24.0
1979-03-07 18:48:53.710 ,1,1,0.,24.0,0.,24.0,0.,24.0,0.,24.0
1979-03-07 18:49:17.710 ,2,1,0.,24.0,0.,24.0,0.,24.0,0.,24.0
1979-03-07 18:49:41.710 ,3,1,0.,24.0,0.,24.0,0.,24.0,0.,24.0
1979-03-07 18:50:05.710 ,4,1,0.,24.0,0.,24.0,0.,24.0,0.,24.0
1979-03-07 18:50:29.710 ,5,1,0.,24.0,0.,24.0,0.,24.0,0.,24.0
1979-03-07 18:50:53.710 ,6,1,0.,24.0,0.,24.0,0.,24.0,0.,24.0
1979-03-07 18:51:17.710 ,7,1,0.,24.0,0.,24.0,0.,24.0,0.,24.0
1979-03-07 18:51:41.710 ,7,1,0.,24.0,0.,24.0,0.,24.0,0.,24.0
1979-03-07 18:52:05.710 ,6,1,0.,24.0,0.,24.0,0.,24.0,0.,24.0
1979-03-07 18:52:29.710 ,5,1,0.,24.0,0.,24.0,0.,24.0,0.,24.0
1979-03-07 18:52:53.710 ,4,1,0.,24.0,0.,24.0,0.,24.0,0.,24.0
1979-03-07 18:53:17.710 ,3,1,0.,24.0,0.,24.0,0.,24.0,0.,24.0
1979-03-07 18:53:41.710 ,2,1,0.,24.0,0.,24.0,0.,24.0,0.,24.0
1979-03-07 18:54:05.710 ,1,1,0.,24.0,0.,24.0,0.,24.0,0.,24.0
1979-03-07 18:54:29.710 ,0,1,0.,24.0,0.,24.0,0.,24.0,0.,24.0
1979-03-07 18:54:53.710 ,0,1,0.,24.0,0.,24.0,0.,24.0,0.,24.0
1979-03-07 18:55:17.710 ,1,1,0.,24.0,0.,24.0,0.,24.0,0.,24.0
1979-03-07 18:55:41.710 ,2,1,0.,24.0,0.,24.0,0.,24.0,0.,24.0
1979-03-07 18:56:05.710 ,3,1,0.,24.0,0.,24.0,0.,24.0,0.,24.0
1979-03-07 18:56:29.710 ,4,1,0.,24.0,0.,24.0,0.,24.0,0.,24.0
1979-03-07 18:56:53.710 ,5,1,0.,24.0,0.,24.0,0.,24.0,0.,24.0
1979-03-07 18:57:17.710 ,6,1,0.,24.0,0.,24.0,0.,24.0,0.,24.0
1979-03-07 18:57:41.710 ,7,1,0.,24.0,0.,24.0,0.,24.0,0.,24.0
1979-03-07 18:58:05.710 ,7,1,0.,24.0,0.,24.0,0.,24.0,0.,24.0
1979-03-07 18:58:29.710 ,6,1,0.,24.0,0.,24.0,0.,24.0,0.,24.0
1979-03-07 18:58:53.710 ,5,1,0.,24.0,0.,24.0,0.,24.0,0.,24.0
1979-03-07 18:59:17.710 ,4,1,0.,24.0,0.,24.0,0.,24.0,0.,24.0
1979-03-07 18:59:41.710 ,3,1,0.,24.0,0.,24.0,0.,24.0,0.,24.0
1979-03-07 19:00:05.710 ,2,1,0.,24.0,0.,24.0,0.,24.0,0.,24.0
1979-03-07 19:00:29.710 ,1,1,0.,24.0,0.,24.0,0.,24.0,0.,24.0
1979-03-07 19:00:53.710 ,0,1,0.,24.0,0.,24.0,0.,24.0,0.,24.0
1979-03-07 19:01:17.710 ,0,1,0.,24.0,0.,24.0,0.,24.0,0.,24.0
1979-03-07 19:01:41.710 ,1,1,0.,24.0,0.,24.0,0.,24.0,0.,24.0
1979-03-07 19:02:05.710 ,2,1,0.,24.0,0.,24.0,0.,24.0,0.,24.0
1979-03-07 19:02:29.710 ,3,1,0.,24.0,0.,24.0,0.,24.0,0.,24.0
1979-03-07 19:02:53.710 ,4,1,0.,24.0,0.,24.0,0.,24.0,0.,24.0
1979-03-07 19:03:17.710 ,5,1,0.,24.0,0.,24.0,0.,24.0,0.,24.0
1979-03-07 19:03:41.710 ,6,1,0.,24.0,0.,24.0,0.,24.0,0.,24.0
1979-03-07 19:04:05.710 ,7,1,0.,24.0,0.,24.0,0.,24.0,0.,24.0
1979-03-07 19:04:29.710 ,7,1,0.,24.0,0.,24.0,0.,24.0,0.,24.0
1979-03-07 19:04:53.710 ,6,1,0.,24.0,0.,24.0,0.,24.0,0.,24.0
1979-03-07 19:05:17.710 ,0,0,0.,24.0,0.,24.0,0.,24.0,0.,24.0
1979-03-07 19:05:43.510 ,0,0,0.,24.0,0.,24.0,0.,24.0,0.,24.0
1979-03-07 19:06:05.710 ,3,1,0.,24.0,0.,24.0,0.,24.0,0.,24.0
1979-03-07 19:06:29.710 ,2,1,0.,24.0,0.,24.0,0.,24.0,0.,24.0
1979-03-07 19:06:53.710 ,1,1,0.,24.0,0.,24.0,0.,24.0,0.,24.0
1979-03-07 19:07:17.710 ,0,1,0.,24.0,0.,24.0,0.,24.0,0.,24.0
1979-03-07 19:07:41.710 ,0,1,0.,24.0,0.,24.0,0.,24.0,0.,24.0
1979-03-07 19:08:05.710 ,1,1,0.,24.0,0.,24.0,0.,24.0,0.,24.0
1979-03-07 19:08:29.710 ,2,1,0.,24.0,0.,24.0,0.,24.0,0.,24.0
1979-03-07 19:08:53.710 ,3,1,0.,24.0,0.,24.0,0.,24.0,0.,24.0
1979-03-07 19:09:17.710 ,4,1,0.,24.0,0.,24.0,0.,24.0,0.,24.0
1979-03-07 19:09:41.710 ,5,1,0.,24.0,0.,24.0,0.,24.0,0.,24.0
1979-03-07 19:10:05.710 ,6,1,0.,24.0,0.,24.0,0.,24.0,0.,24.0
1979-03-07 19:10:29.710 ,7,1,0.,24.0,0.,24.0,0.,24.0,0.,24.0
1979-03-07 19:10:53.710 ,7,1,0.,24.0,0.,24.0,0.,24.0,0.,24.0
1979-03-07 19:11:17.710 ,6,1,0.,24.0,0.,24.0,0.,24.0,0.,24.0
1979-03-07 19:11:41.710 ,5,1,0.,24.0,0.,24.0,0.,24.0,0.,24.0
1979-03-07 19:12:05.710 ,4,1,0.,24.0,0.,24.0,0.,24.0,0.,24.0
1979-03-07 19:12:29.710 ,3,1,0.,24.0,0.,24.0,0.,24.0,0.,24.0
1979-03-07 19:12:53.710 ,2,1,0.,24.0,0.,24.0,0.,24.0,0.,24.0
1979-03-07 19:13:17.710 ,1,1,0.,24.0,0.,24.0,0.,24.0,0.,24.0
1979-03-07 19:13:41.710 ,0,1,0.,24.0,0.,24.0,0.,24.0,0.,24.0
1979-03-07 19:14:05.710 ,0,1,0.,24.0,0.,24.0,0.,24.0,0.,24.0
1979-03-07 19:14:29.710 ,0,0,0.,24.0,0.,24.0,0.,24.0,0.,24.0
1979-03-07 19:14:53.710 ,0,1,0.,24.0,0.,24.0,0.,24.0,0.,24.0
1979-03-07 19:15:17.710 ,3,1,0.,24.0,0.,24.0,0.,24.0,0.,24.0
1979-03-07 19:15:41.710 ,4,1,0.,24.0,0.,24.0,0.,24.0,0.,24.0
1979-03-07 19:16:05.710 ,5,1,0.,24.0,0.,24.0,0.,24.0,0.,24.0
1979-03-07 19:16:29.710 ,6,1,0.,24.0,0.,24.0,0.,24.0,0.,24.0
1979-03-07 19:16:53.710 ,7,1,0.,24.0,0.,24.0,0.,24.0,0.,24.0
1979-03-07 19:17:17.710 ,7,1,0.,24.0,0.,24.0,0.,24.0,0.,24.0
1979-03-07 19:17:41.710 ,6,1,0.,24.0,0.,24.0,0.,24.0,0.,24.0
1979-03-07 19:18:05.710 ,5,1,0.,24.0,0.,24.0,0.,24.0,0.,24.0
1979-03-07 19:18:29.710 ,4,1,0.,24.0,0.,24.0,0.,24.0,0.,24.0
1979-03-07 19:18:53.710 ,3,1,0.,24.0,0.,24.0,0.,24.0,0.,24.0
1979-03-07 19:19:17.710 ,2,1,0.,24.0,0.,24.0,0.,24.0,0.,24.0
1979-03-07 19:19:41.710 ,1,1,0.,24.0,0.,24.0,0.,24.0,0.,24.0
1979-03-07 19:20:05.710 ,0,1,0.,24.0,0.,24.0,0.,24.0,0.,24.0
1979-03-07 19:20:29.710 ,0,1,0.,24.0,0.,24.0,0.,24.0,0.,24.0
1979-03-07 19:20:53.710 ,1,1,0.,24.0,0.,24.0,0.,24.0,0.,24.0
1979-03-07 19:21:17.710 ,2,1,0.,24.0,0.,24.0,0.,24.0,0.,24.0
1979-03-07 19:21:41.710 ,3,1,0.,24.0,0.,24.0,0.,24.0,0.,24.0
1979-03-07 19:22:05.710 ,4,1,0.,24.0,0.,24.0,0.,24.0,0.,24.0
1979-03-07 19:22:29.710 ,5,1,0.,24.0,0.,24.0,0.,24.0,0.,24.0
1979-03-07 19:22:53.710 ,6,1,0.,24.0,0.,24.0,0.,24.0,0.,24.0
1979-03-07 19:23:17.710 ,7,1,0.,24.0,0.,24.0,0.,24.0,0.,24.0
1979-03-07 19:23:41.710 ,7,1,0.,24.0,0.,24.0,0.,24.0,0.,24.0
1979-03-07 19:24:05.710 ,6,1,0.,24.0,0.,24.0,0.,24.0,0.,24.0
1979-03-07 19:24:29.710 ,5,1,0.,24.0,0.,24.0,0.,24.0,0.,24.0
1979-03-07 19:24:53.710 ,4,1,0.,24.0,0.,24.0,0.,24.0,0.,24.0
1979-03-07 19:25:17.710 ,3,1,0.,24.0,0.,24.0,0.,24.0,0.,24.0
1979-03-07 19:25:41.710 ,2,1,0.,24.0,0.,24.0,0.,24.0,0.,24.0
1979-03-07 19:26:05.710 ,1,1,0.,24.0,0.,24.0,0.,24.0,0.,24.0
1979-03-07 19:26:29.710 ,0,1,0.,24.0,0.,24.0,0.,24.0,0.,24.0
1979-03-07 19:26:53.710 ,0,1,0.,24.0,0.,24.0,0.,24.0,0.,24.0
1979-03-07 19:27:17.710 ,1,1,0.,24.0,0.,24.0,0.,24.0,0.,24.0
1979-03-07 19:27:41.710 ,0,0,,0,,0,,0,,0
1979-03-07 19:27:43.510 ,0,0,,0,,0,,0,,0
1979-03-07 19:27:47.110 ,0,0,,0,,0,,0,,0
1979-03-07 19:31:40.510 ,0,0,,0,,0,,0,,0
1979-03-07 19:31:41.710 ,0,0,,0,,0,,0,,0
1979-03-07 19:31:45.910 ,0,0,,0,,0,,0,,0
1979-03-07 19:31:49.510 ,0,0,0.,24.0,0.,24.0,0.,24.0,0.,24.0
1979-03-07 19:32:05.710 ,2,1,0.,24.0,0.,24.0,0.,24.0,0.,24.0
1979-03-07 19:32:29.710 ,1,1,0.,24.0,0.,24.0,0.,24.0,0.,24.0
1979-03-07 19:32:53.710 ,0,1,0.,24.0,0.,24.0,0.,24.0,0.,24.0
1979-03-07 19:33:17.710 ,0,1,0.,24.0,0.,24.0,0.,24.0,0.,24.0
1979-03-07 19:33:41.710 ,1,1,0.,24.0,0.,24.0,0.,24.0,0.,24.0
1979-03-07 19:34:05.710 ,2,1,0.,24.0,0.,24.0,0.,24.0,0.,24.0
1979-03-07 19:34:29.710 ,3,1,0.,24.0,0.,24.0,0.,24.0,0.,24.0
1979-03-07 19:34:53.710 ,4,1,0.,24.0,0.,24.0,0.,24.0,0.,24.0
1979-03-07 19:35:17.710 ,5,1,0.,24.0,0.,24.0,0.,24.0,0.,24.0
1979-03-07 19:35:41.710 ,6,1,0.,24.0,0.,24.0,0.,24.0,0.,24.0
1979-03-07 19:36:05.710 ,7,1,0.,24.0,0.,24.0,0.,24.0,0.,24.0
1979-03-07 19:36:29.710 ,7,1,0.,24.0,0.,24.0,0.,24.0,0.,24.0
1979-03-07 19:36:53.710 ,6,1,0.,24.0,0.,24.0,0.,24.0,0.,24.0
1979-03-07 19:37:17.710 ,5,1,0.,24.0,0.,24.0,0.,24.0,0.,24.0
1979-03-07 19:37:41.710 ,4,1,0.,24.0,0.,24.0,0.,24.0,0.,24.0
1979-03-07 19:38:05.710 ,3,1,0.,24.0,0.,24.0,0.,24.0,0.,24.0
1979-03-07 19:38:29.710 ,2,1,0.,24.0,0.,24.0,0.,24.0,0.,24.0
1979-03-07 19:38:53.710 ,1,1,0.,24.0,0.,24.0,0.,24.0,0.,24.0
1979-03-07 19:39:17.710 ,0,1,0.,24.0,0.,24.0,0.,24.0,0.,24.0
1979-03-07 19:39:41.710 ,0,1,0.,24.0,0.,24.0,0.,24.0,0.,24.0
1979-03-07 19:40:05.710 ,1,1,0.,24.0,0.,24.0,0.,24.0,0.,24.0
1979-03-07 19:40:29.710 ,2,1,0.,24.0,0.,24.0,0.,24.0,0.,24.0
1979-03-07 19:40:53.710 ,3,1,0.,24.0,0.,24.0,0.,24.0,0.,24.0
1979-03-07 19:41:17.710 ,4,1,0.,24.0,0.,24.0,0.,24.0,0.,24.0
1979-03-07 19:41:41.710 ,5,1,0.,24.0,0.,24.0,0.,24.0,0.,24.0
1979-03-07 19:42:05.710 ,6,1,0.,24.0,0.,24.0,0.,24.0,0.,24.0
1979-03-07 19:42:29.710 ,7,1,0.,24.0,0.,24.0,0.,24.0,0.,24.0
1979-03-07 19:42:53.710 ,7,1,0.,24.0,0.,24.0,0.,24.0,0.,24.0
1979-03-07 19:43:17.710 ,6,1,0.,24.0,0.,24.0,0.,24.0,0.,24.0
1979-03-07 19:43:41.710 ,5,1,0.,24.0,0.,24.0,0.,24.0,0.,24.0
1979-03-07 19:44:05.710 ,4,1,0.,24.0,0.,24.0,0.,24.0,0.,24.0
1979-03-07 19:44:29.710 ,3,1,0.,24.0,0.,24.0,0.,24.0,0.,24.0
1979-03-07 19:44:53.710 ,2,1,0.,24.0,0.,24.0,0.,24.0,0.,24.0
1979-03-07 19:45:17.710 ,1,1,0.,24.0,0.,24.0,0.,24.0,0.,24.0
1979-03-07 19:45:41.710 ,0,1,0.,24.0,0.,24.0,0.,24.0,0.,24.0
1979-03-07 19:46:05.710 ,0,1,0.,24.0,0.,24.0,0.,24.0,0.,24.0
1979-03-07 19:46:29.710 ,1,1,0.,24.0,0.,24.0,0.,24.0,0.,24.0
1979-03-07 19:46:53.710 ,2,1,0.,24.0,0.,24.0,0.,24.0,0.,24.0
1979-03-07 19:47:17.710 ,3,1,0.,24.0,0.,24.0,0.,24.0,0.,24.0
1979-03-07 19:47:41.710 ,4,1,0.,24.0,0.,24.0,0.,24.0,0.,24.0
1979-03-07 19:48:05.710 ,5,1,0.,24.0,0.,24.0,0.,24.0,0.,24.0
1979-03-07 19:48:29.710 ,6,1,0.,24.0,0.,24.0,0.,24.0,0.,24.0
1979-03-07 19:48:53.710 ,7,1,0.,24.0,0.,24.0,0.,24.0,0.,24.0
1979-03-07 19:49:17.710 ,7,1,0.,24.0,0.,24.0,0.,24.0,0.,24.0
1979-03-07 19:49:41.710 ,6,1,0.,24.0,0.,24.0,0.,24.0,0.,24.0
1979-03-07 19:50:05.710 ,0,0,0.,24.0,0.,24.0,0.,24.0,0.,24.0
1979-03-07 19:51:08.710 ,0,0,,0,,0,,0,,0
1979-03-07 19:51:17.710 ,2,1,0.,24.0,0.,24.0,0.,24.0,0.,24.0
1979-03-07 19:51:41.710 ,1,1,0.,24.0,0.,24.0,0.,24.0,0.,24.0
1979-03-07 19:52:05.710 ,0,1,0.,24.0,0.,24.0,0.,24.0,0.,24.0
1979-03-07 19:52:29.710 ,0,1,0.,24.0,0.,24.0,0.,24.0,0.,24.0
1979-03-07 19:52:53.710 ,1,1,0.,24.0,0.,24.0,0.,24.0,0.,24.0
1979-03-07 19:53:17.710 ,2,1,0.,24.0,0.,24.0,0.,24.0,0.,24.0
1979-03-07 19:53:41.710 ,3,1,0.,24.0,0.,24.0,0.,24.0,0.,24.0
1979-03-07 19:54:05.710 ,4,1,0.,24.0,0.,24.0,0.,24.0,0.,24.0
1979-03-07 19:54:29.710 ,5,1,0.,24.0,0.,24.0,0.,24.0,0.,24.0
1979-03-07 19:54:53.710 ,6,1,0.,24.0,0.,24.0,0.,24.0,0.,24.0
1979-03-07 19:55:17.710 ,7,1,0.,24.0,0.,24.0,0.,24.0,0.,24.0
1979-03-07 19:55:41.710 ,7,1,0.,24.0,0.,24.0,0.,24.0,0.,24.0
1979-03-07 19:56:05.710 ,6,1,0.,24.0,0.,24.0,0.,24.0,0.,24.0
1979-03-07 19:56:29.710 ,5,1,0.,24.0,0.,24.0,0.,24.0,0.,24.0
1979-03-07 19:56:53.710 ,4,1,0.,24.0,0.,24.0,0.,24.0,0.,24.0
1979-03-07 19:57:17.710 ,3,1,0.,24.0,0.,24.0,0.,24.0,0.,24.0
1979-03-07 19:57:41.720 ,2,1,0.,24.0,0.,24.0,0.,24.0,0.,24.0
1979-03-07 19:58:05.720 ,1,1,0.,24.0,0.,24.0,0.,24.0,0.,24.0
1979-03-07 19:58:29.720 ,0,1,0.,24.0,0.,24.0,0.,24.0,0.,24.0
1979-03-07 19:58:53.720 ,0,1,0.,24.0,0.,24.0,0.,24.0,0.,24.0
1979-03-07 19:59:17.720 ,1,1,0.,24.0,0.,24.0,0.,24.0,0.,24.0
1979-03-07 19:59:41.720 ,2,1,0.,24.0,0.,24.0,0.,24.0,0.,24.0
1979-03-07 20:00:05.720 ,3,1,0.,24.0,0.,24.0,0.,24.0,0.,24.0
1979-03-07 20:00:29.720 ,4,1,0.,24.0,0.,24.0,0.,24.0,0.,24.0
1979-03-07 20:00:53.720 ,5,1,0.,24.0,0.,24.0,0.,24.0,0.,24.0
1979-03-07 20:01:17.720 ,6,1,0.,24.0,0.,24.0,0.,24.0,0.,24.0
1979-03-07 20:01:41.720 ,7,1,0.,24.0,0.,24.0,0.,24.0,0.,24.0
1979-03-07 20:02:05.720 ,7,1,0.,24.0,0.,24.0,0.,24.0,0.,24.0
1979-03-07 20:02:29.720 ,6,1,0.,24.0,0.,24.0,0.,24.0,0.,24.0
1979-03-07 20:02:53.720 ,5,1,0.,24.0,0.,24.0,0.,24.0,0.,24.0
1979-03-07 20:03:17.720 ,4,1,0.,24.0,0.,24.0,0.,24.0,0.,24.0
1979-03-07 20:03:41.720 ,3,1,0.,24.0,0.,24.0,0.,24.0,0.,24.0
1979-03-07 20:04:05.720 ,2,1,0.,24.0,0.,24.0,0.,24.0,0.,24.0
1979-03-07 20:04:29.720 ,1,1,0.,24.0,0.,24.0,0.,24.0,0.,24.0
1979-03-07 20:04:53.720 ,0,1,0.,24.0,0.,24.0,0.,24.0,0.,24.0
1979-03-07 20:05:17.720 ,0,1,0.,24.0,0.,24.0,0.,24.0,0.,24.0
1979-03-07 20:05:41.720 ,1,1,0.,24.0,0.,24.0,0.,24.0,0.,24.0
1979-03-07 20:06:05.720 ,2,1,0.,24.0,0.,24.0,0.,24.0,0.,24.0
1979-03-07 20:06:29.720 ,3,1,0.,24.0,0.,24.0,0.,24.0,0.,24.0
1979-03-07 20:06:53.720 ,4,1,0.,24.0,0.,24.0,0.,24.0,0.,24.0
1979-03-07 20:07:17.720 ,5,1,0.,24.0,0.,24.0,0.,24.0,0.,24.0
1979-03-07 20:07:41.720 ,6,1,0.,24.0,0.,24.0,0.,24.0,0.,24.0
1979-03-07 20:08:05.720 ,7,1,0.,24.0,0.,24.0,0.,24.0,0.,24.0
1979-03-07 20:08:29.720 ,7,1,0.,24.0,0.,24.0,0.,24.0,0.,24.0
1979-03-07 20:08:53.720 ,6,1,0.,24.0,0.,24.0,0.,24.0,0.,24.0
1979-03-07 20:09:17.720 ,5,1,0.,24.0,0.,24.0,0.,24.0,0.,24.0
1979-03-07 20:09:41.720 ,4,1,0.,24.0,0.,24.0,0.,24.0,0.,24.0
1979-03-07 20:10:05.720 ,3,1,0.,24.0,0.,24.0,0.,24.0,0.,24.0
1979-03-07 20:10:29.720 ,2,1,0.,24.0,0.,24.0,0.,24.0,0.,24.0
1979-03-07 20:10:53.720 ,1,1,0.,24.0,0.,24.0,0.,24.0,0.,24.0
1979-03-07 20:11:17.720 ,0,1,0.,24.0,0.,24.0,0.,24.0,0.,24.0
1979-03-07 20:11:41.720 ,0,1,0.,24.0,0.,24.0,0.,24.0,0.,24.0
1979-03-07 20:12:05.720 ,1,1,0.,24.0,0.,24.0,0.,24.0,0.,24.0
1979-03-07 20:12:29.720 ,2,1,0.,24.0,0.,24.0,0.,24.0,0.,24.0
1979-03-07 20:12:53.720 ,3,1,0.,24.0,0.,24.0,0.,24.0,0.,24.0
1979-03-07 20:13:17.720 ,4,1,0.,24.0,0.,24.0,0.,24.0,0.,24.0
1979-03-07 20:13:41.720 ,5,1,0.,24.0,0.,24.0,0.,24.0,0.,24.0
1979-03-07 20:14:05.720 ,6,1,0.,24.0,0.,24.0,0.,24.0,0.,24.0
1979-03-07 20:14:29.720 ,7,1,0.,24.0,0.,24.0,0.,24.0,0.,24.0
1979-03-07 20:14:53.720 ,7,1,0.,24.0,0.,24.0,0.,24.0,0.,24.0
1979-03-07 20:15:17.720 ,6,1,0.,24.0,0.,24.0,0.,24.0,0.,24.0
1979-03-07 20:15:41.720 ,5,1,0.,24.0,0.,24.0,0.,24.0,0.,24.0
1979-03-07 20:16:05.720 ,4,1,0.,24.0,0.,24.0,0.,24.0,0.,24.0
1979-03-07 20:16:29.720 ,3,1,0.,24.0,0.,24.0,0.,24.0,0.,24.0
1979-03-07 20:16:53.720 ,2,1,0.,24.0,0.,24.0,0.,24.0,0.,24.0
1979-03-07 20:17:17.720 ,1,1,0.,24.0,0.,24.0,0.,24.0,0.,24.0
1979-03-07 20:17:41.720 ,0,1,0.,24.0,0.,24.0,0.,24.0,0.,24.0
1979-03-07 20:18:05.720 ,0,1,0.,24.0,0.,24.0,0.,24.0,0.,24.0
1979-03-07 20:18:29.720 ,1,1,0.,24.0,0.,24.0,0.,24.0,0.,24.0
1979-03-07 20:18:53.720 ,2,1,0.,24.0,0.,24.0,0.,24.0,0.,24.0
1979-03-07 20:19:17.720 ,3,1,0.,24.0,0.,24.0,0.,24.0,0.,24.0
1979-03-07 20:19:41.720 ,4,1,0.,24.0,0.,24.0,0.,24.0,0.,24.0
1979-03-07 20:20:05.720 ,5,1,0.,24.0,0.,24.0,0.,24.0,0.,24.0
1979-03-07 20:20:29.720 ,6,1,0.,24.0,0.,24.0,0.,24.0,0.,24.0
1979-03-07 20:20:53.720 ,7,1,0.,24.0,0.,24.0,0.,24.0,0.,24.0
1979-03-07 20:21:17.720 ,7,1,0.,24.0,0.,24.0,0.,24.0,0.,24.0
1979-03-07 20:21:41.720 ,6,1,0.,24.0,0.,24.0,0.,24.0,0.,24.0
1979-03-07 20:22:05.720 ,5,1,0.,24.0,0.,24.0,0.,24.0,0.,24.0
1979-03-07 20:22:29.720 ,4,1,0.,24.0,0.,24.0,0.,24.0,0.,24.0
1979-03-07 20:22:53.720 ,3,1,0.,24.0,0.,24.0,0.,24.0,0.,24.0
1979-03-07 20:23:17.720 ,2,1,0.,24.0,0.,24.0,0.,24.0,0.,24.0
1979-03-07 20:23:41.720 ,1,1,0.,24.0,0.,24.0,0.,24.0,0.,24.0
1979-03-07 20:24:05.720 ,0,1,0.,24.0,0.,24.0,0.,24.0,0.,24.0
1979-03-07 20:24:29.720 ,0,1,0.,24.0,0.,24.0,0.,24.0,0.,24.0
1979-03-07 20:24:53.720 ,1,1,0.,24.0,0.,24.0,0.,24.0,0.,24.0
1979-03-07 20:25:17.720 ,2,1,0.,24.0,0.,24.0,0.,24.0,0.,24.0
1979-03-07 20:25:41.720 ,3,1,0.,24.0,0.,24.0,0.,24.0,0.,24.0
1979-03-07 20:26:05.720 ,4,1,0.,24.0,0.,24.0,0.,24.0,0.,24.0
1979-03-07 20:26:29.720 ,5,1,0.,24.0,0.,24.0,0.,24.0,0.,24.0
1979-03-07 20:26:53.720 ,6,1,0.,24.0,0.,24.0,0.,24.0,0.,24.0
1979-03-07 20:28:05.720 ,0,0,0.,24.0,0.,24.0,0.,24.0,0.,24.0
1979-03-07 20:28:29.720 ,0,0,0.,24.0,0.,24.0,0.,24.0,0.,24.0
1979-03-07 20:28:53.720 ,4,1,0.,24.0,0.,24.0,0.,24.0,0.,24.0
1979-03-07 20:29:17.720 ,3,1,0.,24.0,0.,24.0,0.,24.0,0.,24.0
1979-03-07 20:29:41.720 ,2,1,0.,24.0,0.,24.0,0.,24.0,0.,24.0
1979-03-07 20:30:05.720 ,1,1,0.,24.0,0.,24.0,0.,24.0,0.,24.0
1979-03-07 20:30:29.720 ,0,0,0.,24.0,0.,24.0,0.,24.0,0.,24.0
1979-03-07 20:30:53.720 ,0,0,0.,24.0,0.,24.0,0.,24.0,0.,24.0
1979-03-07 20:31:17.720 ,0,0,0.,24.0,0.,24.0,0.,24.0,0.,24.0
1979-03-07 20:31:41.720 ,0,0,0.,24.0,0.,24.0,0.,24.0,0.,24.0
1979-03-07 20:32:05.720 ,3,1,0.,24.0,0.,24.0,0.,24.0,0.,24.0
1979-03-07 20:32:29.720 ,4,1,0.,24.0,0.,24.0,0.,24.0,0.,24.0
1979-03-07 20:32:53.720 ,5,1,0.,24.0,0.,24.0,0.,24.0,0.,24.0
1979-03-07 20:33:17.720 ,0,0,0.,24.0,0.,24.0,0.,24.0,0.,24.0
1979-03-07 20:34:32.120 ,0,0,,0,,0,,0,,0
1979-03-07 20:34:53.720 ,0,0,0.,24.0,0.,24.0,0.,24.0,0.,24.0
1979-03-07 20:35:20.120 ,0,0,,0,,0,,0,,0
1979-03-07 20:35:41.720 ,0,0,,0,,0,,0,,0
1979-03-07 20:36:05.720 ,0,0,,0,,0,,0,,0
1979-03-07 20:36:29.720 ,0,0,0.,24.0,0.,24.0,0.,24.0,0.,24.0
1979-03-07 20:36:53.720 ,0,1,0.,24.0,0.,24.0,0.,24.0,0.,24.0
1979-03-07 20:37:17.720 ,0,1,0.,24.0,0.,24.0,0.,24.0,0.,24.0
1979-03-07 20:37:41.720 ,1,1,0.,24.0,0.,24.0,0.,24.0,0.,24.0
1979-03-07 20:38:05.720 ,2,1,0.,24.0,0.,24.0,0.,24.0,0.,24.0
1979-03-07 20:38:29.720 ,3,1,0.,24.0,0.,24.0,0.,24.0,0.,24.0
1979-03-07 20:38:53.720 ,4,1,0.,24.0,0.,24.0,0.,24.0,0.,24.0
1979-03-07 20:39:17.720 ,5,1,0.,24.0,0.,24.0,0.,24.0,0.,24.0